Location: *
(50.9167°S, 179.4000°W)
Time: 09:21:52
(UTC+00:00)

Daily predictions for brighter satellites

Satellite Brightness Start Highest point End
(mag) Time Altitude Azimuth Time Altitude Azimuth Time Altitude Azimuth
Cosmos 2360 Rocket 4.4 12:05:22 10° W 12:09:36 21° SW 12:13:53 10° SSE
Cosmos 1943 Rocket 3.2 12:11:01 10° SW 12:14:37 38° SW 12:14:37 38° SW
NOSS 3-4 (A) 4.1 12:16:02 67° WNW 12:17:19 81° SW 12:25:16 10° SE
NOSS 3-4 (C) 4.1 12:16:10 68° WNW 12:17:25 81° SW 12:25:22 10° SE
ADEOS II 3.2 12:19:14 37° SE 12:19:14 37° SE 12:23:43 10° S
ATLAS 3B R/B 4.1 12:18:48 10° SW 12:24:30 32° SSE 12:30:04 10° E
USA 234 3.3 12:31:54 74° WSW 12:31:54 74° WSW 12:37:52 10° WSW
SeaSat 1 3.5 12:35:11 44° S 12:35:11 44° S 12:38:57 10° SSW
ATLAS CENTAUR R/B 4.5 12:35:20 30° ENE 12:35:20 30° ENE 12:42:20 10° ESE
ALOS 2 4.3 12:32:25 10° SSE 12:34:49 31° SSE 12:34:49 31° SSE
ATLAS 5 CENTAUR R/B 4.2 12:36:16 10° SW 12:42:04 29° S 12:47:03 10° ESE
NOSS 3-1 (C) 4.3 12:37:03 10° SW 12:44:01 49° SSE 12:46:36 31° E
COSMOS 2428 4.1 12:46:06 30° WSW 12:46:52 31° SW 12:51:57 10° SSE
Cosmos 1980 4.3 12:47:50 52° SSW 12:47:50 52° SSW 12:52:48 10° SSE
Meteor 1-24 Rocket 4.4 12:49:59 51° ESE 12:49:59 51° ESE 12:55:18 10° SSE
GEOS 3 Rocket 4.3 12:45:35 10° SE 12:49:31 52° SSE 12:49:31 52° SSE
Lacrosse 4 Rocket 3.9 12:51:25 17° SSW 12:51:32 17° SSW 12:54:28 10° SSE
MSX 4.2 12:54:05 61° SSW 12:54:05 61° SSW 12:58:55 10° SSW
Cosmos 2237 Rocket 2.8 12:54:47 50° SSW 12:54:47 50° SSW 12:59:53 10° SSE
Cosmos 2219 Rocket 4.4 12:52:47 13° WSW 12:55:49 19° SSW 12:59:51 10° SSE
Meteor 2-5 Rocket 4.1 13:05:00 63° ESE 13:05:00 63° ESE 13:10:17 10° SSE
IDEFIX/ARIANE 42P 3.6 13:06:38 39° SW 13:06:38 39° SW 13:10:05 10° SSW
Resurs 1-4 Rocket 3.0 13:07:54 43° SW 13:07:54 43° SW 13:11:38 10° SSW
SL-16 R/B 2.5 13:14:09 65° SE 13:14:09 65° SE 13:19:03 10° SSE
Cosmos 1656 Rocket 4.5 13:10:51 10° SSW 13:14:38 43° SW 13:14:38 43° SW
ATLAS 2AS CENTAUR R/B 3.6 13:16:52 35° ENE 13:16:52 35° ENE 13:22:53 10° SE
Cosmos 2369 Rocket 2.8 13:13:54 10° SSW 13:18:07 51° SW 13:18:07 51° SW
CZ-2C R/B 3.5 13:23:01 56° S 13:23:01 56° S 13:27:12 10° SSW
Cosmos 2218 Rocket 4.2 13:21:42 64° ENE 13:21:58 64° E 13:28:23 10° SSE
CZ-2D R/B 3.3 13:31:45 34° SW 13:31:45 34° SW 13:35:12 10° SSW
Cosmos 1943 3.9 13:35:19 43° E 13:35:19 43° E 13:40:22 10° SE
Cosmos 1959 Rocket 4.4 13:35:00 74° ENE 13:35:08 75° E 13:41:22 10° SSE
Cosmos 1727 Rocket 4.3 13:29:34 10° S 13:35:48 61° ESE 13:36:52 53° ENE
Cosmos 2341 Rocket 3.9 13:36:05 84° W 13:36:07 84° W 13:42:32 10° S
USA 267 3.1 13:30:45 10° ESE 13:37:25 87° SSW 13:38:12 72° WNW
Helios 1A Rocket 4.5 13:37:06 10° SSE 13:39:27 34° SSE 13:39:27 34° SSE
NOSS 3-1 (A) 4.0 13:37:24 10° SW 13:44:24 56° SE 13:49:59 10° ENE
CZ-4 R/B 4.2 13:49:40 64° SSE 13:49:40 64° SSE 13:53:53 10° SSW
Cosmos 1975 Rocket 4.5 13:49:56 33° E 13:49:56 33° E 13:53:41 10° SSE
Cosmos 614 Rocket 4.3 13:50:18 62° E 13:50:18 62° E 13:55:08 10° SSE
ALOS 3.0 13:51:20 48° SSW 13:51:20 48° SSW 13:54:46 10° SSW
USA 81 4.2 13:48:36 10° S 13:53:25 71° SSW 13:53:25 71° SSW
Cosmos 864 Rocket 4.3 13:54:10 77° WNW 13:54:27 79° W 14:00:49 10° S
ADEOS II 3.3 14:00:08 31° WSW 14:00:08 31° WSW 14:03:25 10° SSW
RESURS DK-1 4.0 14:05:43 28° SSW 14:05:43 28° SSW 14:08:35 10° SSE
Lacrosse 5 2.9 14:05:38 36° ENE 14:05:38 36° ENE 14:09:38 10° ESE
SeaSat 1 4.5 14:14:54 16° WSW 14:14:54 16° WSW 14:16:09 10° SW
SL-8 Rocket 4.2 14:13:03 51° W 14:13:26 52° WSW 14:19:34 10° S
Cosmos 2366 rocket 4.1 14:15:15 55° W 14:15:51 57° WSW 14:22:13 10° S
ATLAS 3B R/B 2.5 14:09:40 10° SW 14:16:02 80° SE 14:22:19 10° NE
H-2A R/B 4.1 14:16:10 10° ENE 14:20:13 25° ESE 14:24:21 10° S
Cosmos 1375 Rocket 4.4 14:20:49 62° NNW 14:21:58 82° NE 14:28:24 10° SE
Cosmos 2123 Rocket 4.3 14:16:07 10° S 14:22:27 64° ESE 14:26:02 26° NNE
ATLAS 5 CENTAUR R/B 2.7 14:21:15 10° SW 14:27:31 58° SE 14:32:33 10° ENE
IRS-1D 3.4 14:28:47 69° NNE 14:29:27 90° WNW 14:34:41 10° SSW
Meteor 2-13 Rocket 4.3 14:23:57 10° SSW 14:30:08 83° W 14:31:45 52° N
CZ-2C R/B 4.2 14:26:12 10° SSE 14:30:46 29° E 14:33:59 16° NE
Thor Agena Rocket 3.4 14:33:36 68° W 14:33:36 68° W 14:38:41 10° SSW
CZ-2C R/B 2.4 14:33:16 66° N 14:34:00 84° WNW 14:39:18 10° SSW
ATLAS CENTAUR R/B 3.6 14:31:47 47° WNW 14:34:21 87° SSW 14:46:24 10° ESE
NOSS 3-1 (C) 3.7 14:28:34 10° SW 14:33:51 46° W 14:33:51 46° W
Cosmos 44 Rocket 4.4 14:36:11 29° SW 14:36:56 31° SSW 14:41:07 10° SSE
Cosmos 1484 Rocket 4.5 14:36:33 16° ENE 14:38:57 31° ESE 14:42:18 10° S
Cosmos 2237 Rocket 4.4 14:36:35 11° WSW 14:39:43 17° SSW 14:43:19 10° S
Envisat 2.9 14:40:58 65° WNW 14:41:11 65° WNW 14:46:20 10° SSW
Cosmos 1140 Rocket 4.2 14:44:19 34° NNE 14:46:08 48° ENE 14:51:12 10° SSE
BlueWalker 3 2.1 14:47:49 68° ESE 14:47:49 68° ESE 14:51:18 10° ESE
Cosmos 1821 Rocket 4.1 14:46:31 48° WNW 14:47:51 58° WSW 14:54:02 10° S
Cosmos 1025 Rocket 3.7 14:48:29 41° SW 14:48:29 41° SW 14:52:18 10° S
Cosmos 1455 Rocket 4.2 14:46:06 10° SSW 14:48:58 32° SW 14:48:58 32° SW
Cosmos 1242 Rocket 4.3 14:51:52 20° SSW 14:51:52 20° SSW 14:53:11 10° S
Cosmos 405 Rocket 3.8 14:47:42 10° SSW 14:49:53 33° SSW 14:49:53 33° SSW
Cosmos 1603 3.7 14:51:09 52° NW 14:52:38 81° WSW 14:58:30 10° SSE
Cosmos 220 Rocket 4.1 14:53:18 58° NNE 14:53:56 68° ENE 14:58:19 10° SSE
Cosmos 2228 3.2 14:51:59 10° S 14:56:17 67° ESE 14:58:03 34° NNE
METEOR-M 4.4 14:56:18 45° W 14:56:22 45° W 15:01:34 10° SSW
PAYLOAD A 4.0 14:55:53 55° NW 14:56:36 61° WNW 15:01:35 10° SSW
SL-16 R/B 3.7 14:56:01 21° WSW 14:58:05 26° SW 15:02:51 10° SSE
Cosmos 1892 4.4 14:59:35 22° SW 14:59:35 22° SW 15:01:40 10° SSW
MOZ.5/SAFIR/RUBIN 5/SL-8 3.8 14:54:13 10° S 14:59:00 63° WSW 14:59:43 55° WNW
Cosmos 1825 3.8 15:03:24 22° SW 15:03:24 22° SW 15:05:24 10° SSW
Cosmos 2369 Rocket 4.4 14:59:34 10° WSW 14:59:50 11° WSW 14:59:50 11° WSW
Cosmos 1763 Rocket 4.3 14:58:19 10° SSW 15:03:37 53° ESE 15:08:48 10° NE
Cosmos 1934 Rocket 3.9 15:01:04 34° N 15:03:57 89° WSW 15:10:16 10° S
YAOGAN 6 4.0 15:08:17 25° SW 15:08:17 25° SW 15:09:57 10° SSW
ATLAS 2AS CENTAUR R/B 2.8 15:04:17 37° WNW 15:07:12 69° SW 15:14:19 10° SE
Cosmos 1269 Rocket 4.4 15:07:35 42° WNW 15:08:53 52° WSW 15:14:08 10° SSE
Cosmos 2285 Rocket 4.4 15:13:53 34° WNW 15:16:21 51° WSW 15:22:39 10° SSE
Cosmos 1943 3.9 15:17:07 31° W 15:19:06 41° SW 15:24:30 10° SSE
USA 267 3.8 15:13:45 10° ESE 15:20:11 56° S 15:25:31 15° W
Cosmos 1023 Rocket 4.5 15:18:00 36° NNW 15:20:14 89° WSW 15:25:33 10° SSE
Cosmos 1697 Rocket 3.8 15:15:04 10° SSW 15:20:31 45° SE 15:25:56 10° NE
SL-16 R/B 3.2 15:16:29 10° SSE 15:22:43 54° E 15:28:50 10° N
Meteor 1-28 Rocket 3.3 15:22:45 10° SSE 15:26:28 69° ENE 15:27:57 34° N
Cosmos 546 4.5 15:26:01 51° W 15:26:54 78° N 15:30:44 10° ENE
Cosmos 1975 Rocket 4.0 15:27:02 30° W 15:27:29 31° WSW 15:31:28 10° S
Cosmos 1869 3.5 15:26:54 10° SSW 15:30:49 51° W 15:31:35 43° NW
Cosmos 1606 2.6 15:30:57 10° SSW 15:34:34 54° W 15:35:15 46° NW
USA 229 DEB 3.5 15:27:58 10° SW 15:34:51 88° NW 15:41:03 10° NE
USA 229 3.5 15:28:05 10° SW 15:34:58 89° NW 15:41:10 10° NE
NOSS 3-1 (A) 3.6 15:29:02 10° SW 15:35:04 40° WNW 15:40:02 10° N
Intercosmos 25 4.2 15:32:50 10° N 15:37:20 50° E 15:40:43 10° SSE
Cosmos 2360 4.4 15:32:37 10° SSW 15:38:26 75° ESE 15:44:13 10° NE
Meteor 1-11 4.4 15:36:36 28° NW 15:39:28 56° WSW 15:45:10 10° S
Cosmos 1656 3.6 15:35:31 10° SSW 15:41:07 68° WNW 15:46:44 10° NNE
Cosmos 1544 Rocket 4.4 15:39:19 10° SSW 15:43:10 29° W 15:43:36 29° W
Lacrosse 5 2.0 15:44:50 26° WNW 15:47:42 70° SSW 15:52:51 10° ESE
Cosmos 1726 Rocket 3.8 15:44:56 10° S 15:49:21 74° ESE 15:53:45 10° NNE
Cosmos 1536 Rocket 3.7 15:48:30 26° NW 15:50:49 58° WSW 15:55:15 10° S
Meteor 1-27 4.2 15:45:21 10° SSW 15:51:06 67° W 15:56:51 10° N
Cosmos 2251 Rocket 3.5 15:49:13 22° NNW 15:52:41 76° WSW 15:58:05 10° SSE
SL-4 R/B 2.7 15:54:17 27° NNW 15:54:17 27° NNW 15:57:00 10° NNE
IRS-1C 4.1 15:50:00 10° NNE 15:55:23 80° WNW 16:00:50 10° SSW
Cosmos 468 Rocket 4.0 15:52:06 10° SSW 15:57:31 87° WNW 16:02:48 10° NNE
ARIANE 5 R/B 2.5 15:54:00 10° NNE 15:59:16 81° WNW 16:04:37 10° SSW
H-2A R/B 2.0 15:54:24 10° N 15:59:16 56° W 16:04:18 10° SSW
Cosmos 540 Rocket 3.4 15:55:32 10° SSW 16:00:48 81° WNW 16:06:00 10° NNE
ERS-1 4.4 15:55:50 10° NNE 16:00:51 87° WNW 16:05:55 10° SSW
H-2A R/B 2.6 16:01:21 10° N 16:04:46 53° W 16:08:16 10° SSW
ATLAS 3B R/B 3.3 16:01:01 10° WSW 16:06:01 26° WNW 16:11:02 10° NNW
Gbstr 26 Del rocket 4.3 16:01:56 18° NW 16:06:49 53° NNE 16:12:08 10° ESE
NOAA 12 4.3 16:02:54 10° NNE 16:08:13 79° ESE 16:13:36 10° SSW
ARGOS 3.2 16:05:43 10° NNE 16:11:11 89° W 16:16:40 10° SSW
CZ-2C R/B 2.9 16:06:12 10° S 16:11:15 49° WSW 16:15:28 15° NW
ATLAS 5 CENTAUR R/B 2.5 16:06:04 10° SW 16:11:22 35° WNW 16:15:42 10° N
Cosmos 1484 Rocket 3.7 16:11:23 20° NW 16:12:51 26° W 16:16:04 10° SW
CZ-2C R/B 4.2 16:12:35 14° W 16:12:57 14° W 16:15:42 10° SW
Cosmos 1892 Rocket 3.7 16:10:03 10° N 16:14:27 76° E 16:18:54 10° SSE
Cosmos 676 Rocket 4.3 16:14:02 10° NNW 16:19:21 71° ENE 16:24:45 10° SSE
IRS-P3 4.2 16:16:48 10° N 16:22:05 61° WNW 16:27:28 10° SSW
Cosmos 407 Rocket 4.0 16:18:56 15° NW 16:23:03 46° WSW 16:28:09 10° SSE
BlueWalker 3 2.4 16:22:16 12° W 16:25:51 60° S 16:29:44 10° E
Cosmos 1606 Rocket 4.1 16:22:28 10° SSW 16:26:34 38° W 16:30:38 10° NNW
Cosmos 1140 Rocket 4.5 16:24:18 15° WNW 16:28:05 32° SW 16:32:51 10° S
DNEPR-1 R/B 4.1 16:26:11 15° WNW 16:29:18 41° SW 16:33:25 10° SSE
Cosmos 2100 Rocket 4.1 16:23:32 10° N 16:29:59 87° W 16:36:28 10° S
Cosmos 2058 Rocket 3.1 16:28:17 10° SSW 16:32:48 76° W 16:37:19 10° N
Alouette 2 Rocket 4.5 16:26:39 10° NNW 16:33:03 48° WSW 16:37:28 10° S
Cosmos 1980 Rocket 2.5 16:28:35 10° SSW 16:34:22 73° ESE 16:40:02 10° NE
Cosmos 1939 Rocket 3.7 16:31:52 10° NNW 16:35:14 28° W 16:38:37 10° SW
SJ-11-01 4.4 16:32:26 10° NNE 16:37:10 85° ESE 16:41:59 10° SSW
Cosmos 841 Rocket 3.5 16:36:09 10° SSW 16:41:28 78° WNW 16:46:46 10° NNE
Cosmos 44 3.5 16:38:55 10° SW 16:43:26 69° SE 16:48:11 10° NE
Cosmos 1763 Rocket 4.4 16:40:35 10° SW 16:45:06 28° W 16:49:33 10° NNW
SL-24 R/B - RUBIN 2 4.2 16:40:53 10° NNW 16:45:49 60° NE 16:50:17 10° SE
Cosmos 1812 2.6 16:42:37 10° S 16:46:21 86° W 16:50:03 10° N
Cosmos 1190 Rocket 4.4 16:41:12 10° NW 16:46:22 50° WSW 16:51:38 10° SSE
Cosmos 2058 3.1 16:44:02 10° N 16:48:09 80° E 16:52:19 10° SSE
Cosmos-2242 3.5 16:45:17 10° S 16:49:36 66° ESE 16:53:51 10° NNE
Tsikada Rocket 4.3 16:44:50 10° S 16:51:14 78° E 16:57:37 10° NNE
Spot 4 Rocket 4.1 16:48:27 10° N 16:53:36 67° WNW 16:58:50 10° SSW
SMAP 3.8 16:50:06 10° NNE 16:54:43 60° ESE 16:59:25 10° S
Cosmos 1437 Rocket 4.0 16:51:32 10° N 16:55:13 46° E 16:59:02 10° SSE
SL-16 R/B 4.0 16:50:46 10° SSW 16:56:02 35° SE 17:01:15 10° ENE
Cosmos 1802 Rocket 4.0 16:50:10 10° NNW 16:56:25 79° W 17:02:50 10° S
Cosmos 1833 Rocket 2.8 16:51:37 10° NW 16:57:15 69° WSW 17:02:57 10° SSE
SL-08 RB Rocket 4.0 16:52:43 10° N 16:57:15 49° W 17:01:51 10° SSW
Cosmos 2369 3.9 16:53:24 10° SSW 16:59:14 88° ESE 17:05:01 10° NNE
ATLAS 2AS CENTAUR R/B 3.9 16:53:10 10° WSW 16:59:19 33° SSW 17:05:47 10° SE
CZ-2D R/B 4.1 16:55:45 10° NNW 16:59:21 32° W 17:03:03 10° SSW
PSLV R/B 3.6 16:55:28 10° N 16:59:45 63° WNW 17:04:03 10° SSW
USA 267 3.9 16:56:16 10° E 17:02:43 58° SSE 17:09:10 10° WSW
